GW1008 Weather Reports


Display with metric or nautical units.
time (UTC)temp
F
wind
direction
speed
MPH
gust
MPH
rain 1hr
in
rain 24hr
in
rain mn
in
humidity
%
barometer
mb
20260904064015 52 0 0.0 3.0 0.00 0.01 0.00 79 998.5
20260904063518 52 0 0.0 0.0 0.00 0.01 0.00 79 998.5
20260904063038 52 0 0.0 2.0 0.00 0.01 0.00 79 998.6
20260904062522 52 0 0.0 2.0 0.00 0.01 0.00 80 998.6
20260904062015 51 0 0.0 0.0 0.00 0.01 0.00 81 998.6
20260904061539 51 0 0.0 6.0 0.00 0.01 0.00 83 998.8
20260904061021 50 0 0.0 6.0 0.00 0.01 0.00 85 998.9
20260904060518 50 0 0.0 6.0 0.00 0.01 0.00 85 998.9
20260904060057 49 0 0.0 0.0 0.00 0.01 0.00 86 998.9
20260904055518 49 0 0.0 0.0 0.00 0.01 0.00 85 998.9
20260904055016 48 0 0.0 0.0 0.00 0.01 0.00 85 999.0
20260904054541 48 0 0.0 0.0 0.00 0.01 0.00 84 999.0
20260904054021 48 0 0.0 0.0 0.00 0.01 0.00 84 999.0
20260904053517 48 0 0.0 0.0 0.00 0.01 0.00 83 999.0
20260904053035 48 0 0.0 0.0 0.00 0.01 0.00 83 999.1
20260904052519 48 0 0.0 0.0 0.00 0.01 0.00 83 999.0
20260904052016 49 0 0.0 0.0 0.00 0.01 0.00 83 999.0
20260904051533 49 0 0.0 0.0 0.00 0.01 0.00 83 999.1
20260904051016 49 0 0.0 4.0 0.00 0.01 0.00 83 999.2
20260904050517 49 0 0.0 5.0 0.00 0.01 0.00 84 999.1
20260904050043 49 0 0.0 5.0 0.00 0.01 0.00 85 999.1
20260904045518 48 0 0.0 5.0 0.00 0.01 0.00 85 999.2
20260904045019 48 0 0.0 0.0 0.00 0.01 0.00 85 999.1
20260904044532 48 0 0.0 0.0 0.00 0.01 0.00 85 999.3
20260904044016 48 0 0.0 0.0 0.00 0.01 0.00 85 999.3
20260904043519 47 0 0.0 3.0 0.00 0.01 0.00 85 999.4
20260904043031 47 0 0.0 3.0 0.00 0.01 0.00 84 999.5
20260904042515 47 0 0.0 3.0 0.00 0.01 0.00 83 999.7
20260904042018 48 0 0.0 0.0 0.00 0.01 0.00 82 999.9
20260904041535 48 0 0.0 0.0 0.00 0.01 0.00 82 999.9
20260904041014 48 0 0.0 0.0 0.00 0.01 0.00 82 1000.0
20260904040514 49 0 0.0 0.0 0.00 0.01 0.00 82 1000.1
20260904040041 49 0 0.0 0.0 0.00 0.01 0.00 83 1000.2
20260904035517 49 0 0.0 0.0 0.00 0.01 0.00 84 1000.2
20260904035023 50 0 0.0 4.0 0.00 0.01 0.00 85 1000.2
20260904034532 50 0 0.0 11.0 0.00 0.01 0.00 85 1000.1
20260904034016 49 0 0.0 11.0 0.00 0.01 0.00 84 1000.1
20260904033518 49 250 0.0 3.0 0.00 0.01 0.00 82 1000.0
20260904033036 50 0 0.0 0.0 0.00 0.01 0.00 82 1000.1
20260904032517 50 0 0.0 0.0 0.00 0.01 0.00 82 1000.2
20260904032015 51 0 0.0 0.0 0.00 0.01 0.00 81 1000.3
20260904031533 51 0 0.0 0.0 0.00 0.01 0.00 82 1000.3
20260904031017 52 0 0.0 0.0 0.00 0.01 0.00 82 1000.4
20260904030514 53 0 0.0 0.0 0.00 0.01 0.00 81 1000.5
20260904030038 53 0 0.0 0.0 0.00 0.01 0.00 82 1000.3
20260904025516 54 0 0.0 0.0 0.00 0.01 0.00 82 1000.3
20260904025017 54 0 0.0 0.0 0.00 0.01 0.00 83 1000.3
20260904024535 54 0 0.0 0.0 0.00 0.01 0.00 83 1000.3
20260904024017 54 0 0.0 0.0 0.00 0.01 0.00 84 1000.3
20260904023518 54 0 0.0 0.0 0.00 0.01 0.00 83 1000.5
20260904023039 54 0 0.0 0.0 0.00 0.01 0.00 83 1000.4
20260904022518 54 0 0.0 0.0 0.00 0.01 0.00 83 1000.5
20260904022016 54 0 0.0 0.0 0.00 0.01 0.00 83 1000.4
20260904021546 55 0 0.0 0.0 0.00 0.01 0.00 83 1000.6
20260904021016 54 0 0.0 0.0 0.00 0.01 0.00 83 1000.6
20260904020516 54 0 0.0 0.0 0.00 0.01 0.00 83 1000.7
20260904020033 54 0 0.0 0.0 0.00 0.01 0.00 84 1000.7
20260904015518 54 0 0.0 5.0 0.00 0.01 0.00 84 1000.7
20260904015021 54 0 0.0 5.0 0.00 0.01 0.00 84 1000.7
20260904014532 53 0 0.0 5.0 0.00 0.01 0.00 85 1000.7
20260904014018 53 0 0.0 3.0 0.00 0.01 0.00 85 1000.7
20260904013518 52 0 0.0 6.0 0.00 0.01 0.00 84 1000.7
20260904013045 52 0 0.0 6.0 0.00 0.01 0.00 85 1000.8
20260904012518 52 160 0.0 4.0 0.00 0.01 0.00 82 1000.8
20260904012016 52 0 0.0 0.0 0.00 0.01 0.00 81 1000.9
20260904011535 53 0 0.0 0.0 0.00 0.01 0.00 80 1001.0
20260904011017 53 0 0.0 0.0 0.00 0.01 0.00 81 1001.1
20260904010515 54 0 0.0 0.0 0.00 0.01 0.00 81 1001.2
20260904010034 54 0 0.0 0.0 0.00 0.01 0.00 81 1001.4
20260904005516 54 0 0.0 3.0 0.00 0.07 0.00 82 1001.5
20260904005020 54 0 0.0 3.0 0.00 0.07 0.00 81 1001.5
20260904004533 54 0 0.0 3.0 0.00 0.07 0.00 82 1001.6
20260904004015 55 0 0.0 6.0 0.00 0.07 0.00 81 1001.6
20260904003515 55 0 0.0 6.0 0.00 0.07 0.00 81 1001.7
20260904003032 55 0 0.0 1.0 0.00 0.07 0.00 81 1001.7
20260904002519 55 0 0.0 2.0 0.00 0.07 0.00 81 1001.7
20260904002017 55 0 0.0 2.0 0.00 0.07 0.00 81 1001.9
20260904001552 54 0 0.0 2.0 0.00 0.07 0.00 81 1001.9
20260904001018 54 0 0.0 0.0 0.00 0.07 0.00 81 1001.9
20260904000520 54 0 0.0 0.0 0.00 0.07 0.00 82 1002.0
20260904000033 54 0 0.0 0.0 0.00 0.07 0.00 82 1002.1
20260903235516 54 0 0.0 0.0 0.00 0.20 0.00 82 1002.1
20260903235016 54 0 0.0 3.0 0.00 0.20 0.00 81 1002.3
20260903234534 54 0 0.0 3.0 0.00 0.20 0.00 81 1002.4
20260903234019 54 0 0.0 8.0 0.00 0.20 0.00 81 1002.5
20260903233517 54 0 0.0 8.0 0.00 0.20 0.00 82 1002.7
20260903233041 54 0 0.0 0.0 0.00 0.20 0.00 82 1002.8
20260903232519 54 0 0.0 0.0 0.00 0.20 0.00 81 1002.8
20260903232018 54 0 0.0 4.0 0.00 0.20 0.00 81 1002.8
20260903231534 54 0 0.0 4.0 0.00 0.20 0.00 81 1002.8
20260903231018 54 0 0.0 0.0 0.00 0.20 0.00 80 1002.9
20260903230519 54 0 0.0 3.0 0.00 0.20 0.00 80 1002.9
20260903230036 54 0 0.0 9.0 0.00 0.20 0.00 80 1003.0
20260903225516 54 0 0.0 9.0 0.00 0.20 0.20 80 1003.0
20260903225019 54 0 0.0 9.0 0.00 0.20 0.20 80 1003.2
20260903224537 54 0 0.0 7.0 0.00 0.20 0.20 80 1003.2
20260903224019 54 0 0.0 3.0 0.00 0.20 0.20 80 1003.4
20260903223515 54 0 0.0 3.0 0.00 0.20 0.20 79 1003.4
20260903223033 54 0 0.0 0.0 0.00 0.20 0.20 79 1003.4
20260903222518 55 0 0.0 6.0 0.00 0.20 0.20 78 1003.4
20260903222016 55 0 0.0 6.0 0.00 0.20 0.20 78 1003.3
20260903221533 55 0 0.0 11.0 0.00 0.20 0.20 78 1003.5
20260903221015 55 0 1.0 11.0 0.00 0.20 0.20 78 1003.5
20260903220518 55 0 1.0 11.0 0.00 0.20 0.20 79 1003.7
20260903220034 55 255 3.0 11.0 0.00 0.20 0.20 79 1003.7
20260903215518 55 0 0.0 11.0 0.00 0.20 0.20 78 1003.9
20260903215016 55 0 0.0 11.0 0.00 0.20 0.20 78 1003.8
20260903214534 55 0 2.0 11.0 0.00 0.20 0.20 78 1003.9
20260903214021 56 0 0.0 7.0 0.00 0.20 0.20 78 1004.0
20260903213518 56 254 0.0 10.0 0.00 0.20 0.20 78 1004.1
20260903213046 56 281 1.0 10.0 0.00 0.20 0.20 78 1004.0
20260903212518 56 245 1.0 7.0 0.00 0.20 0.20 79 1004.0
20260903212016 56 226 0.0 7.0 0.00 0.20 0.20 79 1003.8
20260903211534 56 0 1.0 7.0 0.00 0.20 0.20 79 1004.0
20260903211018 56 256 1.0 8.0 0.00 0.20 0.20 79 1004.0
20260903210519 56 0 1.0 8.0 0.00 0.20 0.20 79 1004.0
20260903210035 55 0 0.0 7.0 0.00 0.20 0.20 80 1004.0
20260903205518 55 0 0.0 6.0 0.00 0.20 0.20 81 1003.9
20260903205020 55 0 0.0 2.0 0.00 0.20 0.20 82 1004.1
20260903204533 55 0 0.0 2.0 0.00 0.20 0.20 82 1004.3
20260903204015 55 0 0.0 0.0 0.00 0.20 0.20 82 1004.4
20260903203516 55 0 0.0 0.0 0.00 0.20 0.20 82 1004.4
20260903203034 55 0 0.0 0.0 0.00 0.20 0.20 82 1004.4
20260903202518 55 0 0.0 0.0 0.00 0.20 0.20 82 1004.5
20260903202016 55 0 0.0 0.0 0.00 0.20 0.20 82 1004.5
20260903201535 55 0 0.0 3.0 0.00 0.20 0.20 82 1004.6
20260903201020 54 0 0.0 3.0 0.00 0.20 0.20 82 1004.6
20260903200518 54 0 0.0 2.0 0.00 0.20 0.20 82 1004.6
20260903200035 54 0 0.0 0.0 0.00 0.20 0.20 82 1004.6
20260903195516 54 0 0.0 0.0 0.00 0.20 0.20 81 1004.7
20260903195016 55 0 0.0 0.0 0.00 0.20 0.20 81 1004.7
20260903194533 55 0 0.0 0.0 0.00 0.20 0.20 81 1004.7
20260903194023 55 0 0.0 0.0 0.00 0.20 0.20 81 1004.7
20260903193515 55 0 0.0 0.0 0.00 0.20 0.20 81 1004.7
20260903193037 55 0 0.0 0.0 0.00 0.20 0.20 81 1004.8
20260903192519 55 0 0.0 0.0 0.00 0.20 0.20 81 1004.7
20260903192019 55 0 0.0 0.0 0.00 0.20 0.20 81 1004.7
20260903191540 56 0 0.0 1.0 0.00 0.20 0.20 81 1004.8
20260903191018 56 0 0.0 1.0 0.00 0.20 0.20 81 1004.8
20260903190518 56 0 0.0 1.0 0.00 0.20 0.20 80 1004.8
20260903190033 56 0 0.0 0.0 0.00 0.20 0.20 80 1004.8
20260903185515 56 0 0.0 0.0 0.00 0.20 0.20 80 1004.8
20260903185015 56 0 0.0 1.0 0.00 0.20 0.20 80 1004.8
20260903184531 56 0 0.0 1.0 0.00 0.20 0.20 80 1005.0
20260903184015 56 0 0.0 1.0 0.00 0.20 0.20 80 1005.0
20260903183518 57 0 0.0 0.0 0.00 0.20 0.20 80 1005.1
20260903183034 57 0 0.0 0.0 0.00 0.20 0.20 80 1005.2
20260903182519 57 0 0.0 0.0 0.00 0.20 0.20 80 1005.2
20260903182015 57 0 0.0 4.0 0.00 0.20 0.20 80 1005.3
20260903181533 57 0 0.0 4.0 0.00 0.20 0.20 80 1005.3
20260903181019 57 0 0.0 2.0 0.00 0.20 0.20 79 1005.4
20260903180519 57 0 0.0 2.0 0.00 0.20 0.20 79 1005.5
20260903180036 57 0 0.0 2.0 0.00 0.20 0.20 79 1005.7
20260903175517 58 0 0.0 2.0 0.00 0.20 0.20 79 1005.7
20260903175016 58 0 0.0 1.0 0.00 0.20 0.20 78 1005.9
20260903174533 58 0 0.0 5.0 0.00 0.20 0.20 78 1005.8
20260903174015 58 0 0.0 8.0 0.00 0.20 0.20 77 1005.8
20260903173517 58 0 1.0 8.0 0.00 0.20 0.20 77 1005.8
20260903173033 58 0 0.0 4.0 0.00 0.20 0.20 77 1005.9
20260903172516 58 0 0.0 2.0 0.00 0.20 0.20 77 1006.1
20260903172016 59 0 0.0 1.0 0.00 0.20 0.20 77 1006.0
20260903171541 59 0 0.0 7.0 0.00 0.20 0.20 76 1006.0
20260903171018 59 0 0.0 7.0 0.00 0.20 0.20 76 1006.1
20260903170520 59 0 0.0 1.0 0.00 0.20 0.20 74 1006.1
20260903170035 60 0 0.0 4.0 0.00 0.20 0.20 74 1006.2
20260903165517 60 0 0.0 4.0 0.00 0.20 0.20 73 1006.3
20260903165018 60 0 0.0 5.0 0.00 0.20 0.20 72 1006.3
20260903164536 60 0 0.0 5.0 0.00 0.20 0.20 71 1006.2
20260903164017 60 0 0.0 7.0 0.00 0.20 0.20 71 1006.3
20260903163516 60 0 0.0 7.0 0.00 0.20 0.20 71 1006.3
20260903163035 60 0 0.0 7.0 0.00 0.20 0.20 71 1006.2
20260903162518 60 0 0.0 4.0 0.00 0.20 0.20 71 1006.1
20260903162019 60 0 0.0 4.0 0.00 0.20 0.20 71 1006.2
20260903161531 60 0 0.0 4.0 0.00 0.20 0.20 71 1006.4
20260903161019 60 0 0.0 10.0 0.00 0.20 0.20 71 1006.4
20260903160518 60 0 0.0 14.0 0.00 0.20 0.20 70 1006.7
20260903160038 60 244 0.0 14.0 0.00 0.20 0.20 70 1006.6
20260903155518 60 0 0.0 8.0 0.00 0.20 0.20 70 1006.7
20260903155017 60 249 0.0 8.0 0.00 0.20 0.20 71 1006.5
20260903154534 60 252 0.0 4.0 0.00 0.20 0.20 71 1006.5
20260903154016 60 240 0.0 7.0 0.00 0.20 0.20 71 1006.5
20260903153519 60 0 0.0 7.0 0.00 0.20 0.20 71 1006.6
20260903153034 60 0 0.0 7.0 0.00 0.20 0.20 71 1006.7
20260903152518 60 0 0.0 10.0 0.00 0.20 0.20 70 1006.7
20260903152018 61 0 0.0 10.0 0.00 0.20 0.20 71 1006.8
20260903151532 61 0 2.0 10.0 0.00 0.20 0.20 70 1006.9
20260903151015 61 249 1.0 9.0 0.00 0.20 0.20 70 1006.9
20260903150517 61 0 2.0 9.0 0.00 0.20 0.20 69 1006.9
20260903150034 62 0 0.0 9.0 0.00 0.20 0.20 70 1007.0
20260903145517 62 0 0.0 16.0 0.00 0.20 0.20 69 1007.0
20260903145020 62 236 1.0 16.0 0.00 0.20 0.20 67 1006.9
20260903144535 62 267 2.0 13.0 0.00 0.20 0.20 68 1007.0
20260903144016 63 0 2.0 10.0 0.00 0.20 0.20 68 1007.0
20260903143515 63 0 0.0 10.0 0.00 0.20 0.20 68 1006.9
20260903143033 63 0 0.0 10.0 0.00 0.20 0.20 67 1006.9
20260903142519 63 0 0.0 8.0 0.00 0.20 0.20 67 1006.9
20260903142017 63 263 1.0 8.0 0.00 0.20 0.20 66 1007.0
20260903141533 63 0 0.0 9.0 0.00 0.20 0.20 65 1007.0
20260903141015 63 0 0.0 9.0 0.00 0.20 0.20 64 1006.9
20260903140514 63 0 0.0 6.0 0.00 0.20 0.20 65 1007.1
20260903140034 63 0 0.0 6.0 0.00 0.20 0.20 63 1006.8
20260903135516 63 0 0.0 0.0 0.00 0.20 0.20 64 1006.8
20260903135016 63 0 0.0 8.0 0.00 0.20 0.20 64 1006.8
20260903134531 63 0 0.0 8.0 0.00 0.20 0.20 64 1006.9
20260903134015 63 0 0.0 8.0 0.00 0.20 0.20 62 1006.9
20260903133516 63 0 0.0 6.0 0.00 0.20 0.20 62 1007.0
20260903133035 63 0 0.0 5.0 0.00 0.20 0.20 61 1007.2
20260903132519 64 0 0.0 6.0 0.00 0.20 0.20 61 1007.2
20260903132015 64 0 0.0 6.0 0.00 0.20 0.20 60 1007.3
20260903131535 64 0 0.0 6.0 0.00 0.20 0.20 61 1007.1
20260903131018 64 0 0.0 4.0 0.00 0.20 0.20 61 1007.3
20260903130520 64 0 0.0 8.0 0.00 0.20 0.20 61 1007.3
20260903130035 63 0 0.0 8.0 0.00 0.20 0.20 61 1007.2
20260903125514 63 290 1.0 11.0 0.00 0.20 0.20 61 1007.4
20260903125017 63 0 2.0 11.0 0.00 0.20 0.20 60 1007.4
20260903124535 63 0 0.0 11.0 0.00 0.20 0.20 62 1007.3
20260903124018 63 0 1.0 11.0 0.00 0.20 0.20 61 1007.3
20260903123520 63 294 1.0 10.0 0.00 0.20 0.20 61 1007.4
20260903123035 64 0 1.0 10.0 0.00 0.20 0.20 60 1007.4
20260903122519 64 0 0.0 11.0 0.00 0.20 0.20 61 1007.2
20260903122016 64 292 1.0 11.0 0.00 0.20 0.20 60 1007.1
20260903121542 64 0 2.0 12.0 0.00 0.20 0.20 60 1007.2
20260903121016 64 0 1.0 13.0 0.00 0.20 0.20 61 1007.1
20260903120517 63 0 3.0 13.0 0.00 0.20 0.20 62 1007.3
20260903120044 63 0 2.0 14.0 0.00 0.20 0.20 63 1007.2
20260903115517 63 296 4.0 14.0 0.00 0.20 0.20 61 1007.2
20260903115017 63 284 4.0 16.0 0.00 0.20 0.20 61 1007.3
20260903114608 62 283 5.0 16.0 0.00 0.20 0.20 61 1007.3
20260903114016 62 275 3.0 12.0 0.00 0.20 0.20 62 1007.2
20260903113518 62 275 2.0 14.0 0.00 0.20 0.20 63 1007.2
20260903113033 62 283 4.0 14.0 0.00 0.20 0.20 61 1007.2
20260903112517 62 271 3.0 19.0 0.00 0.20 0.20 62 1007.1
20260903112018 63 0 5.0 19.0 0.00 0.20 0.20 60 1007.1
20260903111534 63 298 7.0 18.0 0.00 0.20 0.20 60 1007.1
20260903111017 63 238 2.0 14.0 0.00 0.20 0.20 60 1007.2
20260903110519 63 0 3.0 13.0 0.00 0.20 0.20 59 1007.0
20260903110035 63 0 2.0 14.0 0.00 0.20 0.20 58 1007.0
20260903105514 63 290 3.0 14.0 0.00 0.20 0.20 60 1007.0
20260903105018 63 0 2.0 14.0 0.00 0.20 0.20 60 1007.0
20260903104535 63 0 1.0 23.0 0.00 0.20 0.20 63 1007.0
20260903104015 63 267 4.0 23.0 0.00 0.20 0.20 61 1007.1
20260903103518 63 266 5.0 16.0 0.00 0.20 0.20 61 1007.1
20260903103032 63 315 4.0 18.0 0.00 0.20 0.20 63 1006.7
20260903102515 62 302 6.0 18.0 0.00 0.20 0.20 64 1006.8
20260903102020 62 0 4.0 16.0 0.00 0.20 0.20 63 1006.7
20260903101531 63 273 5.0 16.0 0.00 0.20 0.20 62 1006.8
20260903101017 63 0 5.0 16.0 0.00 0.20 0.20 62 1006.8
20260903100515 64 280 3.0 14.0 0.00 0.20 0.20 62 1006.7
20260903100044 64 299 2.0 12.0 0.00 0.20 0.20 63 1006.6
20260903095518 64 288 1.0 11.0 0.00 0.20 0.20 63 1006.8
20260903095019 63 286 0.0 14.0 0.00 0.20 0.20 64 1006.8
20260903094535 63 256 2.0 15.0 0.00 0.20 0.20 61 1006.8
20260903094017 63 248 3.0 15.0 0.00 0.20 0.20 62 1006.8
20260903093515 63 292 3.0 15.0 0.00 0.20 0.20 63 1007.0
20260903093033 63 281 2.0 11.0 0.00 0.20 0.20 64 1007.1
20260903092519 63 287 2.0 11.0 0.00 0.20 0.20 63 1006.9
20260903092020 63 272 3.0 11.0 0.00 0.20 0.20 65 1006.9
20260903091531 63 0 2.0 16.0 0.00 0.20 0.20 65 1007.0
20260903091016 62 282 2.0 17.0 0.00 0.20 0.20 66 1006.9
20260903090518 63 288 6.0 17.0 0.00 0.20 0.20 65 1006.7
20260903090034 63 318 3.0 14.0 0.00 0.20 0.20 65 1006.7
20260903085515 62 0 0.0 10.0 0.00 0.20 0.20 69 1006.5
20260903085015 62 0 1.0 10.0 0.00 0.20 0.20 68 1006.7
20260903084532 62 0 0.0 12.0 0.00 0.20 0.20 69 1006.5
20260903084016 61 0 2.0 14.0 0.00 0.20 0.20 69 1006.6
20260903083518 61 291 2.0 14.0 0.00 0.20 0.20 69 1006.7
20260903083041 61 265 3.0 14.0 0.00 0.20 0.20 69 1006.6
20260903082517 60 260 3.0 16.0 0.00 0.20 0.20 69 1006.5
20260903082020 60 279 5.0 16.0 0.00 0.20 0.20 69 1006.4
20260903081529 60 0 2.0 10.0 0.01 0.20 0.20 70 1006.4
20260903081015 60 0 2.0 10.0 0.01 0.20 0.20 71 1006.5
20260903080517 60 0 0.0 9.0 0.01 0.20 0.20 71 1006.6
20260903080033 59 0 0.0 9.0 0.01 0.20 0.20 73 1006.7
20260903075519 59 326 1.0 13.0 0.01 0.20 0.20 72 1006.7
20260903075018 59 0 1.0 13.0 0.01 0.20 0.20 73 1006.5
20260903074532 59 271 3.0 13.0 0.01 0.20 0.20 72 1006.4
20260903074018 58 0 2.0 10.0 0.01 0.20 0.20 73 1006.3
20260903073517 58 0 1.0 10.0 0.01 0.20 0.20 73 1006.2
20260903073041 58 0 0.0 11.0 0.01 0.20 0.20 74 1006.4
20260903072518 58 275 2.0 14.0 0.01 0.20 0.20 74 1006.2
20260903072017 57 299 1.0 14.0 0.01 0.20 0.20 75 1006.1
20260903071532 57 271 2.0 13.0 0.00 0.19 0.19 76 1006.0
20260903071014 57 0 2.0 18.0 0.00 0.19 0.19 76 1006.0
20260903070518 57 0 5.0 19.0 0.00 0.19 0.19 77 1006.0
20260903070032 57 284 5.0 19.0 0.00 0.19 0.19 79 1006.1
20260903065516 56 295 3.0 15.0 0.00 0.19 0.19 81 1005.8
20260903065021 56 0 4.0 13.0 0.00 0.19 0.19 83 1005.8
20260903064534 56 0 3.0 15.0 0.00 0.19 0.19 84 1005.5